QFA418 YMML-YSSY

Flight info

Callsign QFA418
Flight time 1h 2m
Altitude 37000
Route ML H129 DOSEL Y59 RIVET
Aircraft B738/M-SDE2E3FGHIRWXY/LB1

Departure

Time 2026-04-23 20:56
Airport Melbourne Airport (YMML)

Arrival

Time 2026-04-23 21:59
Airport Sydney Kingsford Smith International Airport (YSSY)
Time Latitude Longitude Altitude Speed Heading
2026-04-23 20:43 -37.67651 144.84709 374 ft 0 kts 351°
2026-04-23 20:47 -37.67657 144.84711 374 ft 4 kts 351°
2026-04-23 20:48 -37.67678 144.84715 373 ft 4 kts 358°
2026-04-23 20:48 -37.67699 144.84705 372 ft 4 kts 50°
2026-04-23 20:48 -37.67717 144.84683 371 ft 4 kts 32°
2026-04-23 20:48 -37.67735 144.84676 370 ft 4 kts 318°
2026-04-23 20:49 -37.67737 144.84697 370 ft 4 kts 262°
2026-04-23 20:49 -37.67736 144.84714 371 ft 1 kts 262°
2026-04-23 20:51 -37.67736 144.84713 370 ft 0 kts 262°
2026-04-23 20:52 -37.67738 144.84692 370 ft 5 kts 262°
2026-04-23 20:52 -37.67751 144.84624 369 ft 10 kts 235°
2026-04-23 20:52 -37.67804 144.84584 369 ft 9 kts 225°
2026-04-23 20:52 -37.67827 144.84500 363 ft 11 kts 262°
2026-04-23 20:53 -37.67837 144.84413 362 ft 0 kts 259°
2026-04-23 20:53 -37.67845 144.84403 362 ft 3 kts 211°
2026-04-23 20:53 -37.67882 144.84397 363 ft 8 kts 174°
2026-04-23 20:53 -37.67959 144.84411 357 ft 14 kts 171°
2026-04-23 20:54 -37.68080 144.84435 356 ft 21 kts 172°
2026-04-23 20:54 -37.68208 144.84458 352 ft 12 kts 172°
2026-04-23 20:54 -37.68302 144.84474 351 ft 15 kts 175°
2026-04-23 20:54 -37.68390 144.84436 355 ft 14 kts 215°
2026-04-23 20:55 -37.68470 144.84362 344 ft 15 kts 216°
2026-04-23 20:55 -37.68547 144.84271 340 ft 15 kts 244°
2026-04-23 20:55 -37.68538 144.84143 347 ft 15 kts 296°
2026-04-23 20:55 -37.68461 144.84077 348 ft 0 kts 351°
2026-04-23 20:56 -37.68171 144.84023 355 ft 93 kts 352°
2026-04-23 20:56 -37.67223 144.83853 378 ft 178 kts 353°
2026-04-23 20:56 -37.65947 144.83600 1443 ft 174 kts 351°
2026-04-23 20:57 -37.64798 144.83351 2979 ft 171 kts 350°
2026-04-23 20:57 -37.63528 144.83081 3666 ft 205 kts 351°
2026-04-23 20:57 -37.62015 144.82801 3971 ft 238 kts 351°
2026-04-23 20:57 -37.60329 144.82488 4680 ft 251 kts 352°
2026-04-23 20:58 -37.58567 144.82659 5579 ft 261 kts 16°
2026-04-23 20:58 -37.56879 144.83583 6522 ft 268 kts 24°
2026-04-23 20:58 -37.55178 144.84630 7403 ft 275 kts 24°
2026-04-23 20:58 -37.53451 144.85701 8356 ft 278 kts 24°
2026-04-23 20:59 -37.51702 144.86779 9291 ft 282 kts 24°
2026-04-23 20:59 -37.49916 144.87872 10213 ft 288 kts 24°
2026-04-23 20:59 -37.48052 144.89004 10647 ft 311 kts 24°
2026-04-23 20:59 -37.46013 144.90238 10874 ft 338 kts 24°
2026-04-23 21:00 -37.43912 144.91699 11432 ft 351 kts 36°
2026-04-23 21:00 -37.42257 144.93969 12316 ft 354 kts 53°
2026-04-23 21:00 -37.40819 144.96499 13189 ft 357 kts 54°
2026-04-23 21:00 -37.39385 144.99086 13954 ft 363 kts 55°
2026-04-23 21:01 -37.37933 145.01713 14702 ft 367 kts 55°
2026-04-23 21:01 -37.36462 145.04357 15422 ft 371 kts 55°
2026-04-23 21:01 -37.34964 145.07030 16150 ft 376 kts 55°
2026-04-23 21:01 -37.33445 145.09725 16868 ft 380 kts 54°
2026-04-23 21:02 -37.31906 145.12446 17574 ft 384 kts 54°
2026-04-23 21:02 -37.30346 145.15198 18255 ft 389 kts 55°
2026-04-23 21:02 -37.28765 145.17981 18937 ft 393 kts 54°
2026-04-23 21:02 -37.27169 145.20787 19541 ft 397 kts 55°
2026-04-23 21:03 -37.25575 145.23590 20138 ft 401 kts 54°
2026-04-23 21:03 -37.23947 145.26448 20764 ft 404 kts 55°
2026-04-23 21:03 -37.22303 145.29332 21375 ft 408 kts 55°
2026-04-23 21:03 -37.20644 145.32242 21943 ft 412 kts 55°
2026-04-23 21:04 -37.18969 145.35178 22512 ft 415 kts 55°
2026-04-23 21:04 -37.17280 145.38134 23067 ft 419 kts 55°
2026-04-23 21:04 -37.15573 145.41117 23615 ft 423 kts 55°
2026-04-23 21:04 -37.13847 145.44129 24142 ft 427 kts 55°
2026-04-23 21:05 -37.12108 145.47161 24582 ft 430 kts 55°
2026-04-23 21:05 -37.10356 145.50211 25050 ft 433 kts 55°
2026-04-23 21:05 -37.08593 145.53281 25507 ft 435 kts 55°
2026-04-23 21:05 -37.06839 145.56332 25952 ft 438 kts 55°
2026-04-23 21:06 -37.05051 145.59441 26373 ft 441 kts 55°
2026-04-23 21:06 -37.03251 145.62566 26781 ft 444 kts 55°
2026-04-23 21:06 -37.01438 145.65713 27183 ft 447 kts 55°
2026-04-23 21:06 -36.99610 145.68882 27587 ft 450 kts 55°
2026-04-23 21:07 -36.97773 145.72064 27966 ft 453 kts 55°
2026-04-23 21:07 -36.95918 145.75274 28340 ft 456 kts 55°
2026-04-23 21:07 -36.94051 145.78501 28718 ft 459 kts 55°
2026-04-23 21:07 -36.92176 145.81740 29090 ft 462 kts 55°
2026-04-23 21:08 -36.90285 145.85002 29448 ft 464 kts 56°
2026-04-23 21:08 -36.88383 145.88281 29796 ft 467 kts 56°
2026-04-23 21:08 -36.86470 145.91575 30133 ft 470 kts 56°
2026-04-23 21:08 -36.84547 145.94884 30468 ft 472 kts 56°
2026-04-23 21:09 -36.82609 145.98214 30748 ft 475 kts 56°
2026-04-23 21:09 -36.80663 146.01556 31019 ft 477 kts 56°
2026-04-23 21:09 -36.78734 146.04865 31312 ft 478 kts 56°
2026-04-23 21:09 -36.76776 146.08219 31705 ft 477 kts 56°
2026-04-23 21:10 -36.74822 146.11563 32138 ft 475 kts 56°
2026-04-23 21:10 -36.72875 146.14891 32527 ft 474 kts 56°
2026-04-23 21:10 -36.70933 146.18209 32863 ft 474 kts 56°
2026-04-23 21:10 -36.68985 146.21533 33203 ft 474 kts 56°
2026-04-23 21:11 -36.67042 146.24848 33576 ft 474 kts 56°
2026-04-23 21:11 -36.65096 146.28162 33946 ft 473 kts 56°
2026-04-23 21:11 -36.63156 146.31463 34308 ft 472 kts 56°
2026-04-23 21:11 -36.61242 146.34718 34632 ft 472 kts 56°
2026-04-23 21:12 -36.59303 146.38011 34930 ft 471 kts 56°
2026-04-23 21:12 -36.57365 146.41299 35241 ft 470 kts 56°
2026-04-23 21:12 -36.55428 146.44584 35542 ft 470 kts 56°
2026-04-23 21:12 -36.53496 146.47855 35828 ft 469 kts 56°
2026-04-23 21:13 -36.51560 146.51131 36119 ft 469 kts 56°
2026-04-23 21:13 -36.49629 146.54396 36416 ft 468 kts 57°
2026-04-23 21:13 -36.47696 146.57660 36698 ft 468 kts 57°
2026-04-23 21:13 -36.45769 146.60911 36983 ft 467 kts 57°
2026-04-23 21:14 -36.43839 146.64164 37268 ft 466 kts 57°
2026-04-23 21:14 -36.41941 146.67360 37525 ft 466 kts 57°
2026-04-23 21:14 -36.38065 146.73883 37538 ft 471 kts 57°
2026-04-23 21:15 -36.34179 146.80403 37529 ft 467 kts 57°
2026-04-23 21:15 -36.30330 146.86847 37537 ft 463 kts 57°
2026-04-23 21:16 -36.26500 146.93254 37539 ft 462 kts 57°
2026-04-23 21:16 -36.22673 146.99645 37536 ft 461 kts 57°
2026-04-23 21:17 -36.18842 147.06029 37536 ft 462 kts 57°
2026-04-23 21:17 -36.15002 147.12412 37550 ft 462 kts 57°
2026-04-23 21:18 -36.11155 147.18799 37545 ft 464 kts 57°
2026-04-23 21:18 -36.07319 147.25158 37546 ft 464 kts 57°
2026-04-23 21:19 -36.04080 147.30519 37548 ft 465 kts 57°
2026-04-23 21:19 -35.99561 147.37983 37550 ft 467 kts 57°
2026-04-23 21:20 -35.96323 147.43322 37558 ft 467 kts 57°
2026-04-23 21:20 -35.92423 147.49742 37557 ft 468 kts 58°
2026-04-23 21:21 -35.88512 147.56170 37557 ft 468 kts 58°
2026-04-23 21:21 -35.84599 147.62588 37569 ft 468 kts 58°
2026-04-23 21:22 -35.80680 147.68999 37564 ft 468 kts 58°
2026-04-23 21:22 -35.76760 147.75395 37561 ft 467 kts 58°
2026-04-23 21:23 -35.72845 147.81776 37564 ft 466 kts 58°
2026-04-23 21:23 -35.68931 147.88146 37563 ft 466 kts 58°
2026-04-23 21:24 -35.65021 147.94497 37571 ft 465 kts 58°
2026-04-23 21:24 -35.61138 148.00793 37574 ft 464 kts 58°
2026-04-23 21:25 -35.57235 148.07110 37575 ft 464 kts 58°
2026-04-23 21:25 -35.53325 148.13428 37587 ft 464 kts 58°
2026-04-23 21:26 -35.49415 148.19735 37581 ft 464 kts 58°
2026-04-23 21:26 -35.45500 148.26040 37587 ft 464 kts 58°
2026-04-23 21:27 -35.41597 148.32309 37575 ft 465 kts 58°
2026-04-23 21:27 -35.37664 148.38600 37588 ft 465 kts 58°
2026-04-23 21:28 -35.33726 148.44890 37581 ft 465 kts 58°
2026-04-23 21:28 -35.29783 148.51180 37586 ft 466 kts 58°
2026-04-23 21:29 -35.25831 148.57474 37583 ft 466 kts 58°
2026-04-23 21:29 -35.21873 148.63765 37590 ft 467 kts 58°
2026-04-23 21:30 -35.17908 148.70057 37592 ft 467 kts 58°
2026-04-23 21:30 -35.13965 148.76303 37590 ft 467 kts 58°
2026-04-23 21:31 -35.09992 148.82585 37591 ft 467 kts 59°
2026-04-23 21:31 -35.06014 148.88864 37590 ft 467 kts 59°
2026-04-23 21:32 -35.02035 148.95132 37590 ft 467 kts 59°
2026-04-23 21:32 -34.98059 149.01387 37593 ft 467 kts 59°
2026-04-23 21:33 -34.94075 149.07641 37589 ft 466 kts 59°
2026-04-23 21:33 -34.90095 149.13878 37589 ft 466 kts 59°
2026-04-23 21:34 -34.86113 149.20108 37587 ft 466 kts 59°
2026-04-23 21:34 -34.82175 149.26254 37564 ft 453 kts 59°
2026-04-23 21:35 -34.80264 149.29225 37565 ft 438 kts 59°
2026-04-23 21:35 -34.78418 149.32100 37527 ft 425 kts 59°
2026-04-23 21:35 -34.76621 149.34901 37358 ft 416 kts 60°
2026-04-23 21:35 -34.74851 149.37661 36997 ft 412 kts 60°
2026-04-23 21:36 -34.71862 149.43613 35262 ft 421 kts 71°
2026-04-23 21:36 -34.70496 149.46833 34203 ft 434 kts 71°
2026-04-23 21:36 -34.69105 149.50132 33101 ft 444 kts 70°
2026-04-23 21:37 -34.67673 149.53491 32104 ft 452 kts 68°
2026-04-23 21:37 -34.66211 149.56873 31427 ft 451 kts 68°
2026-04-23 21:37 -34.64748 149.60222 30955 ft 445 kts 67°
2026-04-23 21:37 -34.63300 149.63517 30467 ft 439 kts 66°
2026-04-23 21:38 -34.61888 149.66730 29864 ft 435 kts 66°
2026-04-23 21:38 -34.60470 149.69958 29234 ft 431 kts 66°
2026-04-23 21:38 -34.59066 149.73155 28642 ft 427 kts 66°
2026-04-23 21:38 -34.57674 149.76324 28064 ft 423 kts 65°
2026-04-23 21:39 -34.56291 149.79470 27495 ft 419 kts 65°
2026-04-23 21:39 -34.54926 149.82573 26946 ft 416 kts 65°
2026-04-23 21:39 -34.53569 149.85657 26395 ft 412 kts 65°
2026-04-23 21:39 -34.52221 149.88717 25868 ft 409 kts 65°
2026-04-23 21:40 -34.50886 149.91742 25346 ft 405 kts 64°
2026-04-23 21:40 -34.49560 149.94743 24839 ft 402 kts 64°
2026-04-23 21:40 -34.48242 149.97722 24330 ft 399 kts 64°
2026-04-23 21:40 -34.46935 150.00675 23785 ft 396 kts 64°
2026-04-23 21:41 -34.45639 150.03602 23229 ft 392 kts 64°
2026-04-23 21:41 -34.44352 150.06505 22688 ft 389 kts 64°
2026-04-23 21:41 -34.43094 150.09342 22170 ft 386 kts 64°
2026-04-23 21:41 -34.41827 150.12199 21647 ft 382 kts 64°
2026-04-23 21:42 -34.40573 150.15022 21131 ft 379 kts 64°
2026-04-23 21:42 -34.39328 150.17825 20623 ft 377 kts 64°
2026-04-23 21:42 -34.38090 150.20608 20133 ft 374 kts 64°
2026-04-23 21:42 -34.36862 150.23367 19655 ft 371 kts 64°
2026-04-23 21:43 -34.35638 150.26115 19169 ft 368 kts 64°
2026-04-23 21:43 -34.34427 150.28834 18677 ft 366 kts 64°
2026-04-23 21:43 -34.33223 150.31532 18150 ft 363 kts 64°
2026-04-23 21:43 -34.32026 150.34216 17611 ft 361 kts 64°
2026-04-23 21:44 -34.30838 150.36876 17121 ft 358 kts 64°
2026-04-23 21:44 -34.29658 150.39515 16616 ft 355 kts 64°
2026-04-23 21:44 -34.28484 150.42135 16133 ft 353 kts 64°
2026-04-23 21:44 -34.27319 150.44739 15650 ft 351 kts 64°
2026-04-23 21:45 -34.26161 150.47325 15182 ft 349 kts 64°
2026-04-23 21:45 -34.25024 150.49865 14726 ft 347 kts 64°
2026-04-23 21:45 -34.23864 150.52454 14252 ft 345 kts 64°
2026-04-23 21:45 -34.22740 150.54964 13758 ft 343 kts 64°
2026-04-23 21:46 -34.21610 150.57485 13286 ft 340 kts 64°
2026-04-23 21:46 -34.20488 150.59986 12785 ft 338 kts 64°
2026-04-23 21:46 -34.19372 150.62470 12334 ft 335 kts 63°
2026-04-23 21:46 -34.18262 150.64938 11876 ft 333 kts 63°
2026-04-23 21:47 -34.17160 150.67386 11496 ft 329 kts 63°
2026-04-23 21:47 -34.16086 150.69772 11380 ft 317 kts 63°
2026-04-23 21:47 -34.15053 150.72064 11285 ft 304 kts 63°
2026-04-23 21:47 -34.14063 150.74263 11204 ft 293 kts 64°
2026-04-23 21:48 -34.13109 150.76383 11104 ft 283 kts 63°
2026-04-23 21:48 -34.12180 150.78444 10904 ft 278 kts 64°
2026-04-23 21:48 -34.11259 150.80486 10594 ft 277 kts 64°
2026-04-23 21:48 -34.10338 150.82525 10259 ft 277 kts 63°
2026-04-23 21:49 -34.09437 150.84526 9913 ft 272 kts 63°
2026-04-23 21:49 -34.08539 150.86520 9455 ft 270 kts 63°
2026-04-23 21:49 -34.07648 150.88502 8972 ft 268 kts 63°
2026-04-23 21:49 -34.06761 150.90471 8540 ft 265 kts 63°
2026-04-23 21:50 -34.05887 150.92413 8113 ft 262 kts 63°
2026-04-23 21:50 -34.05025 150.94325 7795 ft 256 kts 63°
2026-04-23 21:50 -34.04178 150.96204 7570 ft 253 kts 63°
2026-04-23 21:50 -34.03338 150.98062 7366 ft 252 kts 63°
2026-04-23 21:51 -34.02495 150.99929 7178 ft 256 kts 62°
2026-04-23 21:51 -34.01450 151.01665 6996 ft 259 kts 39°
2026-04-23 21:51 -33.99829 151.02471 6893 ft 248 kts 14°
2026-04-23 21:51 -33.98176 151.02880 6722 ft 238 kts 15°
2026-04-23 21:52 -33.96577 151.03344 6367 ft 236 kts 17°
2026-04-23 21:52 -33.94995 151.03873 5995 ft 235 kts 19°
2026-04-23 21:52 -33.93439 151.04446 5643 ft 233 kts 20°
2026-04-23 21:52 -33.91903 151.05048 5290 ft 231 kts 20°
2026-04-23 21:53 -33.90381 151.05667 4907 ft 231 kts 21°
2026-04-23 21:53 -33.88865 151.06299 4570 ft 229 kts 21°
2026-04-23 21:53 -33.87363 151.06937 4319 ft 229 kts 22°
2026-04-23 21:53 -33.85858 151.07583 4101 ft 230 kts 22°
2026-04-23 21:54 -33.84344 151.08237 3876 ft 232 kts 22°
2026-04-23 21:54 -33.82842 151.08885 3615 ft 226 kts 22°
2026-04-23 21:54 -33.81378 151.09518 3383 ft 220 kts 22°
2026-04-23 21:54 -33.80092 151.10355 3140 ft 210 kts 51°
2026-04-23 21:55 -33.79594 151.11890 2956 ft 196 kts 93°
2026-04-23 21:55 -33.80081 151.13355 2702 ft 190 kts 131°
2026-04-23 21:55 -33.81228 151.14154 2289 ft 195 kts 166°
2026-04-23 21:55 -33.82521 151.14427 2123 ft 185 kts 166°
2026-04-23 21:56 -33.83736 151.14755 1883 ft 173 kts 166°
2026-04-23 21:56 -33.84875 151.15057 1651 ft 162 kts 166°
2026-04-23 21:56 -33.85924 151.15330 1485 ft 145 kts 166°
2026-04-23 21:56 -33.86847 151.15570 1271 ft 130 kts 166°
2026-04-23 21:57 -33.87715 151.15798 1107 ft 127 kts 167°
2026-04-23 21:57 -33.88590 151.16026 934 ft 131 kts 167°
2026-04-23 21:57 -33.89490 151.16261 756 ft 134 kts 168°
2026-04-23 21:57 -33.90407 151.16499 579 ft 134 kts 169°
2026-04-23 21:58 -33.91320 151.16718 431 ft 136 kts 170°
2026-04-23 21:58 -33.92244 151.16993 230 ft 136 kts 169°
2026-04-23 21:58 -33.93159 151.17219 55 ft 133 kts 170°
2026-04-23 21:58 -33.93992 151.17430 26 ft 110 kts 168°
2026-04-23 21:59 -33.94592 151.17587 29 ft 68 kts 167°
2026-04-23 21:59 -33.94912 151.17670 28 ft 39 kts 168°
2026-04-23 21:59 -33.95066 151.17633 27 ft 15 kts 189°
2026-04-23 22:00 -33.95146 151.17597 28 ft 6 kts 238°
2026-04-23 22:00 -33.95148 151.17547 28 ft 6 kts 295°
2026-04-23 22:00 -33.95112 151.17520 29 ft 6 kts 347°
2026-04-23 22:00 -33.95071 151.17508 29 ft 6 kts 347°
2026-04-23 22:01 -33.95029 151.17499 29 ft 6 kts 348°
2026-04-23 22:01 -33.94987 151.17488 29 ft 6 kts 347°
2026-04-23 22:01 -33.94944 151.17477 29 ft 6 kts 347°
2026-04-23 22:01 -33.94901 151.17466 29 ft 6 kts 347°
2026-04-23 22:02 -33.94860 151.17454 29 ft 6 kts 347°
2026-04-23 22:02 -33.94818 151.17443 29 ft 6 kts 347°
2026-04-23 22:02 -33.94778 151.17432 29 ft 6 kts 347°
2026-04-23 22:02 -33.94739 151.17421 29 ft 6 kts 347°
2026-04-23 22:03 -33.94700 151.17412 29 ft 6 kts 349°
2026-04-23 22:03 -33.94661 151.17403 29 ft 6 kts 349°
2026-04-23 22:03 -33.94623 151.17394 30 ft 5 kts 349°
2026-04-23 22:03 -33.94586 151.17385 30 ft 5 kts 349°
2026-04-23 22:04 -33.94549 151.17376 30 ft 5 kts 347°
2026-04-23 22:04 -33.94513 151.17366 30 ft 5 kts 347°
2026-04-23 22:04 -33.94475 151.17356 30 ft 6 kts 347°
2026-04-23 22:04 -33.94434 151.17345 30 ft 7 kts 347°
2026-04-23 22:05 -33.94387 151.17333 29 ft 7 kts 347°
2026-04-23 22:05 -33.94334 151.17319 29 ft 8 kts 347°
2026-04-23 22:05 -33.94275 151.17303 29 ft 9 kts 347°
2026-04-23 22:05 -33.94206 151.17285 28 ft 11 kts 347°
2026-04-23 22:06 -33.94129 151.17266 27 ft 11 kts 349°
2026-04-23 22:06 -33.94054 151.17247 28 ft 11 kts 346°
2026-04-23 22:06 -33.93988 151.17230 28 ft 0 kts 352°
2026-04-23 22:06 -33.93984 151.17229 28 ft 2 kts 356°
2026-04-23 22:07 -33.93966 151.17236 28 ft 3 kts 43°
2026-04-23 22:07 -33.93961 151.17260 28 ft 4 kts 77°
2026-04-23 22:07 -33.93954 151.17296 27 ft 5 kts 76°
2026-04-23 22:07 -33.93943 151.17348 29 ft 7 kts 76°
2026-04-23 22:08 -33.93930 151.17411 27 ft 8 kts 75°
2026-04-23 22:08 -33.93913 151.17471 26 ft 8 kts 70°
2026-04-23 22:08 -33.93898 151.17531 27 ft 7 kts 75°
2026-04-23 22:08 -33.93884 151.17589 28 ft 7 kts 75°
2026-04-23 22:09 -33.93872 151.17645 28 ft 7 kts 74°
2026-04-23 22:09 -33.93858 151.17700 29 ft 7 kts 64°
2026-04-23 22:09 -33.93841 151.17719 29 ft 0 kts 24°
2026-04-23 22:10 -33.93841 151.17718 29 ft 0 kts 18°
2026-04-23 22:10 -33.93826 151.17712 29 ft 6 kts 344°
2026-04-23 22:10 -33.93767 151.17693 29 ft 10 kts 345°
2026-04-23 22:10 -33.93721 151.17679 29 ft 10 kts 339°
2026-04-23 22:11 -33.93658 151.17642 29 ft 10 kts 330°
2026-04-23 22:11 -33.93595 151.17613 29 ft 8 kts 352°
2026-04-23 22:11 -33.93539 151.17599 29 ft 8 kts 348°
2026-04-23 22:11 -33.93511 151.17595 29 ft 1 kts 23°
2026-04-23 22:12 -33.93508 151.17603 29 ft 1 kts 57°
2026-04-23 22:12 -33.93506 151.17616 29 ft 2 kts 84°
2026-04-23 22:12 -33.93508 151.17635 29 ft 3 kts 94°
2026-04-23 22:12 -33.93509 151.17662 29 ft 4 kts 98°
2026-04-23 22:13 -33.93514 151.17690 29 ft 0 kts 101°
2026-04-23 22:13 -33.93514 151.17691 29 ft 0 kts 101°